{"data":{"norad_id":68324,"intl_designator":"2026-059D","name":"STARLINK-37164","alt_names":[],"object_type":"PAYLOAD","status":"ACTIVE","operator":null,"country":"US","launch_date":"2026-03-22","launch_site_code":"AFETR","launch_vehicle":null,"mission":null,"orbit_class":"UNKNOWN","rcs_meters":null,"size_class":null,"mass_kg":null,"dimensions":null,"purposes":["comms"],"wikipedia_slug":null,"has_3d_model":false,"image_url":null,"decayed_at":null,"tle_current":{"epoch":"2026-05-24T23:04:19.055424Z","epoch_age_seconds":78502,"freshness":"FRESH","line1":"1 68324U 26059D   26144.96133166  .00008734  00000+0  30664-3 0  9990","line2":"2 68324  53.1595 353.9634 0001224  84.7161 275.3979 15.30200799 10988","mean_motion":15.30200799,"eccentricity":0.0001224,"inclination_deg":53.1595,"raan_deg":353.9634,"arg_perigee_deg":84.7161,"mean_anomaly_deg":275.3979,"bstar":0.00030664,"rev_number":1098,"period_min":94.10529656899,"perigee_km":474.37383374909,"apogee_km":476.05153375167,"semimajor_km":6853.3496837504,"source":"CELESTRAK","updated_at":"2026-05-25T13:38:21.921758Z"}}}